WetterOnline ( https://www.wetteronline.de )

Wetter aktuell Hanau

Aktuelles Wetter: Offenbach (119m)

6-stündlich | Neueste Meldungen
Ortszeit Temperatur Wetter
So, 18.08. 20:00 19.8° C leichter Regen
So, 18.08. 14:00 27.3° C bewölkt
So, 18.08. 8:00 18.2° C bewölkt
So, 18.08. 2:00 17.0° C leichter Regen
Sa, 17.08. 20:00 18.4° C leichter Regen
Sa, 17.08. 14:00 21.0° C bedeckt
Sa, 17.08. 8:00 16.4° C wolkig
Sa, 17.08. 2:00 16.0° C bedeckt
Ortszeit Temperatur Wetter
So, 18.08. 23:30 18.7° C bedeckt
So, 18.08. 23:20 18.7° C bedeckt
So, 18.08. 23:10 18.6° C bedeckt
So, 18.08. 23:00 18.6° C bedeckt
So, 18.08. 22:50 18.6° C bedeckt
So, 18.08. 22:40 18.7° C bedeckt
So, 18.08. 22:30 18.5° C bedeckt
So, 18.08. 22:00 18.5° C wolkig
Ortszeit Relative Feuchte Sichtweite
So, 18.08. 20:00 93% 16 km
So, 18.08. 14:00 56% 55 km
So, 18.08. 8:00 93% 35 km
So, 18.08. 2:00 98% 5.0 km
Sa, 17.08. 20:00 88% 28 km
Sa, 17.08. 14:00 69% 40 km
Sa, 17.08. 8:00 85% 50 km
Sa, 17.08. 2:00 79% 50 km
Ortszeit Relative Feuchte Sichtweite
So, 18.08. 23:30 97% 45 km
So, 18.08. 23:20 97% -
So, 18.08. 23:10 98% -
So, 18.08. 23:00 98% 45 km
So, 18.08. 22:50 98% -
So, 18.08. 22:40 99% -
So, 18.08. 22:30 99% 26 km
So, 18.08. 22:00 98% 13 km
Ortszeit Niederschlagsmenge Niederschlagsart
So, 18.08. 20:00 8 l/m2 in 12 Std. Regenschauer
So, 18.08. 14:00 0.0 l/m2 in 6 Std. -
So, 18.08. 8:00 2 l/m2 in 12 Std. Regen
So, 18.08. 2:00 1 l/m2 in 6 Std. Regen
Sa, 17.08. 20:00 1 l/m2 in 12 Std. Regen
Sa, 17.08. 14:00 0.6 l/m2 in 6 Std. Regen
Sa, 17.08. 8:00 0.1 l/m2 in 12 Std. Regen
Sa, 17.08. 2:00 0.0 l/m2 in 6 Std. -
Ortszeit Niederschlagsmenge Niederschlagsart
So, 18.08. 23:30 0.0 l/m2 in 1 Std. -
So, 18.08. 23:20 keine Meldung -
So, 18.08. 23:10 keine Meldung -
So, 18.08. 23:00 0.1 l/m2 in 1 Std. Regen
So, 18.08. 22:50 keine Meldung -
So, 18.08. 22:40 keine Meldung -
So, 18.08. 22:30 0.1 l/m2 in 1 Std. -
So, 18.08. 22:00 0.1 l/m2 in 1 Std. Regen
Ortszeit Stärke Spitze Richtung
km/h Bft. km/h Grad Sektor
So, 18.08. 20:00 9 2 57 220° SW
So, 18.08. 14:00 14 3 36 210° SW
So, 18.08. 8:00 7 2 25 200° S
So, 18.08. 2:00 7 2 22 150° SO
Sa, 17.08. 20:00 6 1 37 190° S
Sa, 17.08. 14:00 9 2 20 170° S
Sa, 17.08. 8:00 4 1 11 140° SO
Sa, 17.08. 2:00 4 1 14 120° SO
Ortszeit Stärke Spitze Richtung
km/h Bft. km/h Grad Sektor
So, 18.08. 23:30 7 2 11 310° NW
So, 18.08. 23:20 7 2 - 310° NW
So, 18.08. 23:10 6 1 - 300° NW
So, 18.08. 23:00 4 1 7 180° S
So, 18.08. 22:50 4 1 - 180° S
So, 18.08. 22:40 4 1 - 160° S
So, 18.08. 22:30 4 1 7 120° SO
So, 18.08. 22:00 2 1 9 90° O
Ortszeit Untergrenze Bedeckung Gattung
total tief tief mittel hoch
So, 18.08. 20:00 3000 m 8/8 8/8 - - -
So, 18.08. 14:00 1380 m 7/8 7/8 - - -
So, 18.08. 8:00 510 m 8/8 7/8 - - -
So, 18.08. 2:00 240 m 7/8 7/8 - - -
Sa, 17.08. 20:00 1140 m 8/8 8/8 - - -
Sa, 17.08. 14:00 1800 m 8/8 8/8 - - -
Sa, 17.08. 8:00 2700 m 8/8 1/8 - - -
Sa, 17.08. 2:00 4200 m 8/8 8/8 - - -
Ortszeit Bedeckungsgrad in Achtel und Wolkenuntergrenze
So, 18.08. 23:30 5(3600m) 7(4800m) 8(5400m)
So, 18.08. 23:20 5(3600m) 7(4800m) 8(5400m)
So, 18.08. 23:10 1(3000m) 7(4800m) 8(5400m)
So, 18.08. 23:00 5(3000m) 7(3600m) 8(4500m)
So, 18.08. 22:50 5(3000m) 7(3600m) 8(4500m)
So, 18.08. 22:40 7(3300m) 8(4500m)
So, 18.08. 22:30 7(3300m) 8(4500m) 8(5700m)
So, 18.08. 22:00 1(2400m) 8(4200m) 8(5700m)
Ortszeit Luftdruck NN (hPa) Tendenz (hPa in 3 Std.)
So, 18.08. 20:00 1010 + 2,2
So, 18.08. 14:00 1007 - 0,7
So, 18.08. 8:00 1009 + 0,5
So, 18.08. 2:00 1010 - 1,3
Sa, 17.08. 20:00 1012 0,0
Sa, 17.08. 14:00 1012 - 0,8
Sa, 17.08. 8:00 1012 - 0,4
Sa, 17.08. 2:00 1014 - 1,0
Ortszeit Luftdruck NN (hPa) Tendenz (hPa in 3 Std.)
So, 18.08. 23:30 1011 + 1,5
So, 18.08. 23:20 1011 keine Meldung
So, 18.08. 23:10 1011 keine Meldung
So, 18.08. 23:00 1011 + 1,6
So, 18.08. 22:50 1011 keine Meldung
So, 18.08. 22:40 1011 keine Meldung
So, 18.08. 22:30 1011 + 1,8
So, 18.08. 22:00 1010 + 1,2
Ortszeit Schneehöhe (cm)
So, 18.08. 20:00 -
So, 18.08. 14:00 -
So, 18.08. 8:00 -
So, 18.08. 2:00 -
Sa, 17.08. 20:00 -
Sa, 17.08. 14:00 -
Sa, 17.08. 8:00 -
Sa, 17.08. 2:00 -
Ortszeit Schneehöhe (cm)
So, 18.08. 23:30 -
So, 18.08. 23:20 -
So, 18.08. 23:10 -
So, 18.08. 23:00 -
So, 18.08. 22:50 -
So, 18.08. 22:40 -
So, 18.08. 22:30 -
So, 18.08. 22:00 -
Link zu dieser Seite / Seite empfehlen

Das Wetter in ...